Location: Beaver Brook Station
(42.3793°N, 71.2203°W)
Time: 01:39:05
(UTC+00:00)

BREEZE-M R/B - Pass Details

Date: 29 October 2020
Orbit: 310 x 4520 km, 49.7° (Epoch: 05 December)

Event Time Altitude Azimuth Distance (km) Brightness Sun altitude
Rises 22:20:51 0° 293° (WNW) 2,342 7.1 -7.9°
Reaches altitude 10° 22:22:34 10° 304° (NW) 1,674 6.0 -8.2°
Maximum altitude 22:25:55 35° 13° (NNE) 1,113 4.2 -8.8°
Enters shadow 22:31:27 12° 76° (ENE) 2,881 5.8 -9.8°
